Regional Weather Roundup
Issued by NWS Newport/Morehead, NC

Home | Current Version | Previous Version | Text Only | Print | Product List | Glossary On
Versions: 1 2 3 4 5 6 7 8 9 10 11 12 13 14 15 16 17 18 19 20 21 22 23 24 25 26 27 28 29 30 31 32 33 34 35 36 37 38 39 40 41 42 43 44 45 46 47 48 49 50
000
ASUS42 KMHX 191713
RWRMHX
WEATHER ROUNDUP FOR EASTERN NORTH CAROLINA
NATIONAL WEATHER SERVICE NEWPORT/MOREHEAD CITY NC
100 PM EDT WED JUN 19 2019

NOTE: "FAIR" INDICATES FEW OR NO CLOUDS BELOW 12,000 FEET
WITH NO SIGNIFICANT WEATHER AND/OR OBSTRUCTIONS TO VISIBILITY

NCZ015>017-031-032-045>047-102-103-191800-
NORTH COAST

CITY           SKY/WX    TMP DP  RH WIND       PRES   REMARKS
EDENTON        FAIR      83  76  79 W7        29.84F
ELIZABETH CITY FAIR      83  73  72 W9        29.84F
KITTY HAWK     PTSUNNY   82  72  72 MISG      29.84F
MANTEO         PTSUNNY   80  75  86 CALM      29.85F

$$

NCZ045>047-081-094-103-104-191800-
CENTRAL COAST

CITY           SKY/WX    TMP DP  RH WIND       PRES   REMARKS
FRISCO         FAIR      82  77  84 SW10      29.86F

$$

NCZ095-097-098-100-101-191800-
SOUTHERN COAST

CITY           SKY/WX    TMP DP  RH WIND       PRES   REMARKS
BEAUFORT       CLOUDY    84  77  79 SW13      29.85F
CEDAR ISLAND   NOT AVBL
JACKSONVILLE   PTSUNNY   85  71  63 W10       29.85F
PINEY ISLAND   FAIR      86  75  69 W8        29.84F
WILMINGTON     FAIR      86  72  62 SW9       29.86F


$$

NCZ011>013-027>030-043-044-078>080-089-090>093-098-191800-
COASTAL PLAIN

CITY           SKY/WX    TMP DP  RH WIND       PRES   REMARKS
AHOSKIE        PTSUNNY   81  76  84 SW3       29.83F
CLINTON        NOT AVBL
ELIZABETHTOWN  PTSUNNY   85  71  63 W8        29.87F
GOLDSBORO      PTSUNNY   86  72  62 SW7       29.86F
GREENVILLE     FAIR      86  73  66 SW8       29.86F
HAVELOCK       FAIR      88  73  61 W8        29.85F
KENANSVILLE    FAIR      84  73  70 SW7       29.86F
KINSTON        MOSUNNY   88  72  58 SW9G16    29.85F
NEW BERN       FAIR      86  76  71 SW9       29.85F
RICHLANDS      FAIR      86  75  69 SW7       29.86F
ROCKY MOUNT    PTSUNNY   83  74  74 VRB5      29.84F
WASHINGTON     PTSUNNY   87  74  64 CALM      29.83F
WHITEVILLE     FAIR      85  71  62 SW7       29.88F

$$

AMZ130-135-150-152-154-156-158-170-250-252-270-ANZ085-086-088-633-658-670-191800-
MARINE OBSERVATIONS

STATION/POSITION TIME  TEMP    WIND        PRES    WAVE   SWELL
                       AIR SEA DIR/SP/G            HT/PER HT/PER
                 (UTC) (F)     (DEG/KT/KT) (MB)    (FT/S) (FT/S)
64 E VA BEACH    NOT AVBL
DUCK             1630   81 66  230/  9/ 11 1010.2
2 E DUCK         1700      74                N/A     2/13   2/13
10 NE DUCK       1700      75                N/A     2/ 5
OREGON INLET     1630   78 81  200/ 10/ 12 1011.0
13E OREGON INLT  1646      78                N/A     3/ 4   3/ 4
HATTERAS CG      1630   80 77  220/  6/  9 1011.2
DIAMOND BUOY     1650   80 82  240/ 10/ 12 1011.2    3/ 7   2/ 7
CAPE LOOKOUT     1700   81     230/  9/ 11 1011.0
BEAUFORT LAB     1630   82 82  220/  7/ 10 1012.1
30 SE NEW RVR IN NOT AVBL
30 SE NEW RVR IN 1700      80                N/A     4/ 7
27 SE WRIGHTSVLE NOT AVBL
5 SE WRIGHTSVLE  NOT AVBL
27 SE WRIGHTSVL  NOT AVBL
FRYING PAN BUOY  1700   80     260/ 12/ 16 1011.8
225 S CAPE HAT   1650   80 80  210/ 14/ 16 1014.7    6/ 7   2/13
41 SE CHARLESTON 1700   80     240/ 10/ 14 1012.8

$$




USA.gov is the U.S. government's official web portal to all federal, state and local government web resources and services.